Regional Weather Roundup
Issued by NWS

Home | Current Version | Previous Version | Text Only | Print | Product List | Glossary Off
Versions: 1 2 3 4 5 6 7 8 9 10 11 12 13 14 15 16 17 18 19 20 21 22 23 24 25 26 27 28 29 30 31 32 33 34 35 36 37 38 39 40 41 42 43 44 45 46 47 48 49 50

000
ASUS43 KDMX 302207
RWRIA

WEATHER ROUNDUP FOR IOWA
NATIONAL WEATHER SERVICE DES MOINES IA
500 PM CDT SUN AUG 30 2015

NOTE: "FAIR" INDICATES FEW OR NO CLOUDS BELOW 12,000 FEET WITH NO
SIGNIFICANT WEATHER AND/OR OBSTRUCTIONS TO VISIBILITY.

* - THESE STATIONS ARE NOT NWS STATIONS...THUS NOT UNDER NWS
QUALITY CONTROL.  THEY ALSO DO NOT REPORT WEATHER SUCH
AS PRECIPITATION OR FOG.

IAZ001>003-012>014-020>022-031>034-043>046-302300-
   NORTHWEST IOWA

CITY           SKY/WX    TMP DP  RH WIND       PRES   REMARKS
CARROLL *      PTSUNNY   73  68  83 S10       30.00F
CHEROKEE *     SUNNY     73  68  83 S9        29.98S
DENISON *      MOSUNNY   73  66  78 S9        29.98F
LE MARS *      SUNNY     72  66  83 S10G16    29.97S
ORANGE CITY *  SUNNY     72  64  78 S12       29.96F
SHELDON *      SUNNY     73  66  78 S9G17     29.95S
SPENCER        SUNNY     77  65  66 S13       29.97F
STORM LAKE *   MOSUNNY   72  66  83 S14       30.00S
$$

IAZ055>058-069>071-079>083-090>094-302300-
   SOUTHWEST IOWA

CITY           SKY/WX    TMP DP  RH WIND       PRES   REMARKS
ATLANTIC *     PTSUNNY   75  68  78 S7G13     30.01S
AUDUBON *      PTSUNNY   73  66  78 S7        30.02S
CLARINDA *     SUNNY     79  68  69 CALM      30.02S HX  81
COUNCIL BLFS * MOSUNNY   75  66  73 S9        30.00F
CRESTON *      MOSUNNY   77  68  73 SE3       30.03S
HARLAN  *      MOSUNNY   73 -35   1 S9        30.03F
LAMONI         MOSUNNY   79  69  71 VRB6      30.02S HX  81
RED OAK *      SUNNY     77  68  73 S7        30.01S
SHENANDOAH *   PTSUNNY   79  68  69 SE8       30.01S HX  81
$$

IAZ047>049-059>061-072>074-084-302300-
   CENTRAL IOWA

CITY           SKY/WX    TMP DP  RH WIND       PRES   REMARKS
AMES           CLOUDY    74  66  76 S5        30.02S
ANKENY *       CLOUDY    77  68  73 SE3       30.01S
CHARITON *     SUNNY     79  68  69 S6        30.02S HX  81
DES MOINES     PTSUNNY   78  67  68 S6        30.01S HX  80
GRINNELL*      MOSUNNY   75  66  73 S5        30.04S
KNOXVILLE *    PTSUNNY   77  68  73 SE5       30.00F
MARSHALLTOWN   CLOUDY    73  66  78 S7        30.02F
PELLA *        MOSUNNY   79  72  78 CALM      30.03F HX  82
PERRY *        CLOUDY    77  66  69 S5        30.01F
$$

IAZ004>006-015-016-023>025-035-036-302300-
   NORTH CENTRAL IOWA

CITY           SKY/WX    TMP DP  RH WIND       PRES   REMARKS
ALGONA *       PTSUNNY   73  66  78 S16       29.99F
CLARION *      CLOUDY    72  66  83 SW13      30.01F
ESTHERVILLE    SUNNY     74  66  76 S15       29.97F
FORT DODGE *   CLOUDY    73  64  73 S9        30.01F
MASON CITY     PTSUNNY   73  66  78 S14       30.02F
FOREST CITY *  CLOUDY    72  64  78 S9G16     30.00F
IOWA FALLS *   CLOUDY    73  66  78 S7        30.04S
$$

IAZ007>011-017>019-026>030-037>042-050>054-066-302300-
   NORTHEAST IOWA

CITY           SKY/WX    TMP DP  RH WIND       PRES   REMARKS
CEDAR RAPIDS   PTSUNNY   73  67  81 W3        30.03F
CHARLES CITY * CLOUDY    72  66  83 S9        30.03S
CLINTON *      SUNNY     73  64  73 CALM      30.06S
DECORAH *      CLOUDY    72  64  78 VRB7      30.02S
DUBUQUE        SUNNY     73  64  73 SW5       30.05S
MONTICELLO *   SUNNY     75  66  73 VRB6      30.03F
OELWEIN *      CLOUDY    72  64  78 SW8       30.04F
WATERLOO       CLOUDY    73  65  75 SW6       30.02S
$$

IAZ064-065-067-068-078-302300-
   EAST CENTRAL IOWA

CITY           SKY/WX    TMP DP  RH WIND       PRES   REMARKS
DAVENPORT      MOSUNNY   77  65  66 VRB3      30.03F
IOWA CITY      MOSUNNY   76  66  71 CALM      30.03F
MT. PLEASANT * SUNNY     84  63  48 N3        30.01F HX  85
MUSCATINE *    MOSUNNY   79  66  65 W6        30.02F HX  81
QUAD CITIES    SUNNY     80  64  58 NW3       30.02F HX  82
$$

IAZ062-063-075>077-085>089-095>099-302300-
   SOUTHEAST IOWA

CITY           SKY/WX    TMP DP  RH WIND       PRES   REMARKS
BURLINGTON     SUNNY     82  67  60 S3        30.01F HX  84
FAIRFIELD *    PTSUNNY   79  68  69 CALM      30.02F HX  81
FORT MADISON * SUNNY     81  70  69 CALM      30.02S HX  84
KEOKUK *       MOSUNNY   84  68  58 NE5       30.00S HX  87
OSKALOOSA *    PTSUNNY   77  68  73 CALM      30.03S
CENTERVILLE *  SUNNY     79  68  69 CALM      30.03F HX  81
OTTUMWA        MOSUNNY   78  69  73 CALM      30.00F HX  80
WASHINGTON *     N/A    N/A N/A N/A MISG        N/A
$$

ABBREVIATIONS USED IN REMARKS
   TC - TEMPERATURES IN CELSIUS
  WCI - WIND CHILL INDEX
   HX - HEAT INDEX
  VSB - VISIBILITY
$$



USA.gov is the U.S. government's official web portal to all federal, state and local government web resources and services.